contact:dominique.lefevre@mio.osupytheas.fr, maurice.libes@osupytheas.fr, didier.mallarino@osupytheas.fr
Project:EMSO http://www.emso-fr.org/EMSO-France
Depth: 2436.0 m
Title:EMSO Ligure Ouest : Data MII capteur AQUADOPP
Date,Latitude,Longitude,X_East,Y_North,Z_Up,Amplitude_X,Amplitude_Y,Amplitude_Z,Batterie,SoundSpeed,Heading,Pitch,Roll,Pressure,TIS,Speed,Direction
, degrees North, degrees East, m.s-1, m.s-1,m.s-1, 1, 1, 1, Volt, m.s-1, degree, degree, degree, dbar, degree_C, m.s-1, degree
2020-06-08T00:04:03,42.805,6.029,0.003,0.012,-0.001,104.0,107.0,102.0,13.4,1505.3,324.5,-0.7,1.8,2470.425,13.33,0.012,14.0
2020-06-08T00:07:03,42.805,6.029,-0.019,0.008,-0.041,106.0,107.0,102.0,13.4,1505.4,325.0,-0.7,1.8,2470.44,13.34,0.02,292.8
2020-06-08T00:10:03,42.805,6.029,-0.024,-0.006,-0.002,105.0,110.0,103.0,13.4,1505.4,326.5,-0.7,1.8,2470.448,13.34,0.024,256.0
2020-06-08T00:13:03,42.805,6.029,-0.007,-0.008,-0.027,108.0,108.0,102.0,13.4,1505.4,328.0,-0.7,1.8,2470.423,13.34,0.01,221.2
2020-06-08T00:16:03,42.805,6.029,0.013,0.022,-0.024,105.0,108.0,102.0,13.4,1505.4,323.2,-0.7,1.8,2470.401,13.34,0.025,30.6
2020-06-08T00:19:03,42.805,6.029,0.017,0.012,-0.007,106.0,110.0,102.0,13.3,1505.4,323.0,-0.7,1.9,2470.389,13.34,0.02,54.8
2020-06-08T00:22:03,42.805,6.029,0.001,0.027,-0.022,105.0,109.0,102.0,13.3,1505.4,326.2,-0.7,1.8,2470.435,13.34,0.027,2.1
2020-06-08T00:25:03,42.805,6.029,0.041,0.021,0.021,105.0,107.0,102.0,13.4,1505.4,323.2,-0.7,1.8,2470.441,13.34,0.046,62.9
2020-06-08T00:28:03,42.805,6.029,-0.014,0.026,-0.039,106.0,108.0,103.0,13.3,1505.4,325.9,-0.7,1.8,2470.417,13.35,0.029,331.7
2020-06-08T00:31:03,42.805,6.029,0.008,0.024,-0.031,105.0,107.0,103.0,13.3,1505.4,325.5,-0.7,1.8,2470.409,13.35,0.025,18.4
2020-06-08T00:34:03,42.805,6.029,-0.002,0.01,-0.012,106.0,105.0,103.0,13.3,1505.4,323.7,-0.7,1.9,2470.395,13.35,0.01,348.7
2020-06-08T00:37:03,42.805,6.029,0.019,0.003,0.015,105.0,107.0,102.0,13.4,1505.4,326.0,-0.7,1.8,2470.399,13.35,0.019,81.0
2020-06-08T00:40:03,42.805,6.029,0.023,0.02,-0.01,105.0,107.0,103.0,13.4,1505.4,326.9,-0.7,1.8,2470.416,13.35,0.03,49.0
2020-06-08T00:43:03,42.805,6.029,-0.014,0.024,-0.004,106.0,106.0,104.0,13.4,1505.4,323.9,-0.7,1.8,2470.416,13.34,0.027,329.7
2020-06-08T00:46:03,42.805,6.029,-0.017,0.012,-0.029,106.0,106.0,101.0,13.4,1505.4,327.1,-0.7,1.8,2470.37,13.34,0.02,305.2
2020-06-08T00:49:03,42.805,6.029,-0.028,0.003,-0.043,104.0,108.0,101.0,13.4,1505.4,328.0,-0.7,1.8,2470.361,13.34,0.028,276.1
2020-06-08T00:52:03,42.805,6.029,-0.012,-0.005,-0.059,106.0,107.0,102.0,13.4,1505.4,326.5,-0.7,1.8,2470.359,13.34,0.013,247.4
2020-06-08T00:55:03,42.805,6.029,-0.015,0.012,-0.063,106.0,105.0,102.0,13.4,1505.4,325.3,-0.7,1.9,2470.396,13.34,0.019,308.7
2020-06-08T00:58:03,42.805,6.029,0.0,0.005,-0.036,105.0,108.0,102.0,13.4,1505.4,326.5,-0.7,1.8,2470.396,13.34,0.005,0.0
2020-06-08T01:04:03,42.805,6.029,-0.011,0.029,-0.027,106.0,107.0,104.0,13.4,1505.3,325.1,-0.8,1.8,2470.421,13.33,0.031,339.2
2020-06-08T01:07:03,42.805,6.029,-0.04,0.001,-0.012,105.0,106.0,102.0,13.4,1505.3,326.6,-0.7,1.8,2470.401,13.33,0.04,271.4
2020-06-08T01:10:03,42.805,6.029,-0.028,0.01,-0.034,105.0,107.0,103.0,13.3,1505.3,325.1,-0.7,1.9,2470.403,13.33,0.029,289.6
2020-06-08T01:13:03,42.805,6.029,-0.017,0.004,-0.054,106.0,106.0,101.0,13.3,1505.4,325.3,-0.7,1.8,2470.384,13.34,0.017,283.2
2020-06-08T01:16:03,42.805,6.029,-0.018,0.002,-0.033,105.0,105.0,103.0,13.4,1505.4,325.4,-0.7,1.8,2470.406,13.34,0.018,276.3
2020-06-08T01:19:03,42.805,6.029,-0.022,0.017,-0.064,105.0,107.0,101.0,13.3,1505.4,322.8,-0.7,1.8,2470.324,13.34,0.027,307.7
2020-06-08T01:22:03,42.805,6.029,-0.016,0.002,-0.034,105.0,106.0,103.0,13.3,1505.4,324.6,-0.7,1.8,2470.367,13.34,0.016,277.1
2020-06-08T01:25:03,42.805,6.029,-0.016,-0.008,-0.056,106.0,107.0,102.0,13.4,1505.4,324.1,-0.6,1.8,2470.387,13.34,0.017,243.4
2020-06-08T01:28:03,42.805,6.029,-0.022,0.004,-0.019,105.0,107.0,102.0,13.4,1505.4,324.9,-0.7,1.8,2470.391,13.34,0.022,280.3
2020-06-08T01:31:03,42.805,6.029,-0.006,-0.01,0.037,106.0,107.0,103.0,13.4,1505.4,323.0,-0.7,1.8,2470.373,13.34,0.011,211.0
2020-06-08T01:34:03,42.805,6.029,-0.015,0.001,-0.022,109.0,105.0,103.0,13.4,1505.4,325.1,-0.7,1.8,2470.369,13.34,0.015,273.8
2020-06-08T01:37:03,42.805,6.029,0.01,0.018,-0.009,104.0,106.0,102.0,13.4,1505.4,327.3,-0.7,1.8,2470.366,13.34,0.02,29.1
2020-06-08T01:40:03,42.805,6.029,-0.015,0.015,-0.025,104.0,107.0,102.0,13.4,1505.4,323.3,-0.7,1.8,2470.352,13.34,0.021,315.0
2020-06-08T01:43:03,42.805,6.029,-0.004,0.002,-0.015,105.0,106.0,101.0,13.4,1505.4,324.7,-0.7,1.8,2470.346,13.34,0.004,296.6
2020-06-08T01:46:03,42.805,6.029,-0.016,0.008,-0.025,104.0,107.0,102.0,13.4,1505.4,324.5,-0.7,1.8,2470.36,13.34,0.017,296.6
2020-06-08T01:49:03,42.805,6.029,-0.054,0.016,-0.075,104.0,106.0,100.0,13.3,1505.4,326.3,-0.7,1.8,2470.332,13.34,0.056,286.5
2020-06-08T01:52:03,42.805,6.029,0.004,0.009,-0.038,103.0,106.0,102.0,13.3,1505.4,328.0,-0.7,1.8,2470.377,13.34,0.009,24.0
2020-06-08T01:55:03,42.805,6.029,0.0,0.0,0.0,104.0,107.0,101.0,13.4,1505.4,322.9,-0.7,1.8,2470.348,13.34,0.0,0.0
2020-06-08T01:58:03,42.805,6.029,0.035,0.021,0.026,104.0,106.0,102.0,13.4,1505.4,325.9,-0.7,1.8,2470.361,13.34,0.04,59.0
2020-06-08T02:04:03,42.805,6.029,-0.012,-0.016,-0.03,106.0,108.0,102.0,13.4,1505.3,324.2,-0.7,1.8,2470.382,13.32,0.02,216.9
2020-06-08T02:07:03,42.805,6.029,-0.022,0.016,0.018,106.0,106.0,102.0,13.3,1505.3,323.3,-0.7,1.8,2470.358,13.32,0.027,306.0
2020-06-08T02:10:03,42.805,6.029,-0.047,0.006,-0.06,104.0,108.0,103.0,13.3,1505.3,324.5,-0.7,1.8,2470.382,13.33,0.047,277.3
2020-06-08T02:13:03,42.805,6.029,-0.01,0.026,-0.047,105.0,105.0,102.0,13.3,1505.3,326.7,-0.7,1.8,2470.361,13.33,0.027,339.0
2020-06-08T02:16:03,42.805,6.029,0.003,0.01,-0.033,103.0,106.0,102.0,13.3,1505.3,324.5,-0.7,1.8,2470.352,13.33,0.01,16.7
2020-06-08T02:19:03,42.805,6.029,-0.05,0.02,-0.047,103.0,106.0,102.0,13.3,1505.3,325.4,-0.7,1.8,2470.377,13.33,0.053,291.8
2020-06-08T02:22:03,42.805,6.029,0.002,0.002,-0.035,105.0,105.0,104.0,13.4,1505.3,327.9,-0.7,1.8,2470.35,13.33,0.002,45.0
2020-06-08T02:25:03,42.805,6.029,0.002,0.005,-0.005,104.0,106.0,102.0,13.4,1505.3,327.1,-0.7,1.8,2470.293,13.33,0.005,21.8
2020-06-08T02:28:03,42.805,6.029,-0.013,0.006,0.0,105.0,106.0,103.0,13.4,1505.3,326.1,-0.7,1.8,2470.361,13.33,0.014,294.8
2020-06-08T02:31:03,42.805,6.029,-0.005,0.001,-0.017,106.0,107.0,102.0,13.4,1505.3,327.3,-0.7,1.8,2470.324,13.33,0.005,281.3
2020-06-08T02:34:03,42.805,6.029,-0.023,0.007,-0.041,106.0,106.0,103.0,13.4,1505.4,328.5,-0.7,1.8,2470.317,13.34,0.024,286.9
2020-06-08T02:37:03,42.805,6.029,-0.004,0.014,-0.032,106.0,106.0,103.0,13.3,1505.4,328.0,-0.7,1.8,2470.347,13.34,0.014,344.1
2020-06-08T02:40:03,42.805,6.029,-0.022,0.017,-0.032,104.0,109.0,101.0,13.4,1505.4,324.8,-0.7,1.8,2470.323,13.34,0.027,307.7
2020-06-08T02:43:03,42.805,6.029,0.011,0.019,-0.013,107.0,108.0,103.0,13.3,1505.4,325.9,-0.7,1.8,2470.324,13.34,0.021,30.1
2020-06-08T02:46:03,42.805,6.029,-0.025,0.016,0.0,105.0,109.0,101.0,13.4,1505.4,324.2,-0.7,1.8,2470.326,13.34,0.029,302.6
2020-06-08T02:49:03,42.805,6.029,-0.066,-0.014,-0.077,106.0,107.0,102.0,13.4,1505.4,324.8,-0.7,1.9,2470.305,13.34,0.067,258.0
2020-06-08T02:52:03,42.805,6.029,-0.068,0.003,-0.074,106.0,107.0,102.0,13.3,1505.4,327.1,-0.7,1.8,2470.311,13.34,0.068,272.5
2020-06-08T02:55:03,42.805,6.029,0.012,-0.002,-0.022,105.0,110.0,102.0,13.4,1505.4,326.1,-0.7,1.9,2470.291,13.34,0.012,99.5
2020-06-08T02:58:03,42.805,6.029,-0.005,0.015,0.003,105.0,109.0,101.0,13.4,1505.4,325.9,-0.7,1.8,2470.301,13.34,0.015,341.6
2020-06-08T03:04:03,42.805,6.029,-0.005,-0.024,-0.025,104.0,109.0,102.0,13.4,1505.3,328.0,-0.7,1.8,2470.318,13.32,0.024,191.8
2020-06-08T03:07:03,42.805,6.029,-0.005,0.007,-0.026,105.0,109.0,106.0,13.4,1505.3,326.5,-0.7,1.8,2470.331,13.32,0.008,324.5
2020-06-08T03:10:03,42.805,6.029,-0.016,-0.017,-0.038,104.0,109.0,103.0,13.4,1505.3,324.9,-0.7,1.8,2470.326,13.33,0.023,223.3
2020-06-08T03:13:03,42.805,6.029,-0.029,-0.001,-0.071,103.0,109.0,104.0,13.4,1505.3,325.4,-0.7,1.8,2470.353,13.33,0.029,268.0
2020-06-08T03:16:03,42.805,6.029,-0.016,0.014,-0.041,105.0,108.0,102.0,13.4,1505.3,327.3,-0.7,1.8,2470.322,13.33,0.021,311.2
2020-06-08T03:19:03,42.805,6.029,-0.017,0.004,-0.047,104.0,108.0,102.0,13.4,1505.3,325.4,-0.7,1.9,2470.322,13.33,0.017,283.2
2020-06-08T03:22:03,42.805,6.029,-0.03,-0.001,-0.065,104.0,107.0,102.0,13.4,1505.4,325.8,-0.7,1.8,2470.335,13.34,0.03,268.1
2020-06-08T03:28:03,42.805,6.029,-0.018,0.002,-0.047,104.0,108.0,103.0,13.3,1505.3,326.8,-0.7,1.9,2470.319,13.32,0.018,276.3
2020-06-08T03:31:03,42.805,6.029,-0.049,-0.003,-0.011,107.0,107.0,102.0,13.4,1505.3,326.7,-0.7,1.8,2470.372,13.32,0.049,266.5
2020-06-08T03:34:03,42.805,6.029,-0.025,0.007,-0.032,105.0,107.0,102.0,13.4,1505.3,326.4,-0.7,1.9,2470.319,13.33,0.025,285.6
2020-06-08T03:40:03,42.805,6.029,0.002,0.008,-0.009,105.0,108.0,102.0,13.4,1505.3,326.5,-0.7,1.8,2470.377,13.31,0.008,14.0
2020-06-08T03:43:03,42.805,6.029,-0.036,-0.001,-0.05,104.0,107.0,101.0,13.4,1505.3,326.4,-0.7,1.9,2470.358,13.32,0.036,268.4
2020-06-08T03:46:03,42.805,6.029,-0.02,0.016,-0.02,105.0,109.0,103.0,13.4,1505.3,327.2,-0.7,1.9,2470.307,13.33,0.025,308.7
2020-06-08T03:49:03,42.805,6.029,-0.019,0.006,-0.002,105.0,109.0,104.0,13.4,1505.3,326.7,-0.7,1.8,2470.323,13.33,0.019,287.5
2020-06-08T03:52:03,42.805,6.029,-0.045,0.005,-0.036,107.0,110.0,102.0,13.4,1505.3,325.0,-0.7,1.8,2470.374,13.33,0.045,276.3
2020-06-08T03:55:03,42.805,6.029,-0.023,0.001,-0.02,105.0,107.0,102.0,13.4,1505.3,324.0,-0.7,1.8,2470.316,13.33,0.023,272.5
2020-06-08T03:58:03,42.805,6.029,-0.021,0.006,-0.024,105.0,107.0,102.0,13.3,1505.3,324.8,-0.7,1.8,2470.328,13.33,0.021,285.9
2020-06-08T04:04:03,42.805,6.029,-0.032,0.006,-0.052,105.0,107.0,103.0,13.4,1505.3,326.3,-0.7,1.8,2470.375,13.32,0.032,280.6
2020-06-08T04:07:03,42.805,6.029,-0.012,0.031,-0.006,106.0,107.0,102.0,13.4,1505.3,326.0,-0.7,1.8,2470.329,13.32,0.033,338.8
2020-06-08T04:10:03,42.805,6.029,-0.017,0.019,-0.027,106.0,105.0,102.0,13.4,1505.3,325.9,-0.7,1.8,2470.359,13.33,0.025,318.2
2020-06-08T04:13:03,42.805,6.029,-0.02,0.013,-0.029,105.0,108.0,101.0,13.4,1505.3,325.1,-0.7,1.9,2470.358,13.33,0.023,303.0
2020-06-08T04:16:03,42.805,6.029,-0.002,-0.003,0.003,105.0,108.0,103.0,13.3,1505.3,326.8,-0.7,1.8,2470.323,13.33,0.003,213.7
2020-06-08T04:19:03,42.805,6.029,-0.014,0.014,-0.047,106.0,107.0,101.0,13.4,1505.3,326.4,-0.7,1.8,2470.285,13.33,0.019,315.0
2020-06-08T04:22:03,42.805,6.029,0.01,0.03,-0.005,105.0,107.0,103.0,13.4,1505.3,326.0,-0.7,1.8,2470.319,13.33,0.031,18.4
2020-06-08T04:25:03,42.805,6.029,-0.052,0.022,-0.051,105.0,108.0,103.0,13.4,1505.3,326.4,-0.7,1.8,2470.349,13.33,0.056,292.9
2020-06-08T04:28:03,42.805,6.029,-0.014,0.025,-0.027,104.0,109.0,103.0,13.4,1505.3,326.2,-0.7,1.8,2470.316,13.33,0.028,330.7
2020-06-08T04:31:03,42.805,6.029,-0.014,0.018,-0.008,105.0,108.0,102.0,13.3,1505.3,327.2,-0.7,1.8,2470.33,13.33,0.022,322.1
2020-06-08T04:34:03,42.805,6.029,-0.01,0.001,-0.072,104.0,107.0,101.0,13.4,1505.3,327.2,-0.7,1.8,2470.337,13.33,0.01,275.7
2020-06-08T04:37:03,42.805,6.029,-0.022,0.011,-0.05,106.0,108.0,102.0,13.4,1505.3,326.8,-0.7,1.8,2470.295,13.33,0.024,296.6
2020-06-08T04:40:03,42.805,6.029,0.0,-0.001,-0.001,107.0,109.0,102.0,13.4,1505.3,326.5,-0.7,1.8,2470.326,13.33,0.001,180.0
2020-06-08T04:43:03,42.805,6.029,-0.03,0.007,-0.04,106.0,110.0,102.0,13.4,1505.3,324.6,-0.8,1.8,2470.36,13.33,0.03,283.1
2020-06-08T04:46:03,42.805,6.029,-0.028,0.023,0.021,105.0,108.0,102.0,13.4,1505.3,324.0,-0.7,1.8,2470.311,13.33,0.036,309.4
2020-06-08T04:49:03,42.805,6.029,-0.01,0.009,-0.037,105.0,108.0,103.0,13.3,1505.3,323.9,-0.7,1.8,2470.263,13.33,0.013,312.0
2020-06-08T04:52:03,42.805,6.029,-0.021,0.013,0.006,105.0,109.0,102.0,13.3,1505.3,323.6,-0.7,1.8,2470.318,13.33,0.024,301.8
2020-06-08T04:55:03,42.805,6.029,-0.021,0.035,0.004,106.0,109.0,102.0,13.3,1505.3,324.6,-0.7,1.8,2470.311,13.33,0.04,329.0
2020-06-08T04:58:03,42.805,6.029,-0.035,0.003,-0.068,106.0,106.0,101.0,13.3,1505.3,326.7,-0.7,1.8,2470.305,13.33,0.035,274.9
2020-06-08T05:04:03,42.805,6.029,-0.019,0.01,-0.04,105.0,108.0,103.0,13.4,1505.3,324.4,-0.7,1.8,2470.345,13.31,0.021,297.8
2020-06-08T05:07:03,42.805,6.029,-0.015,0.02,-0.05,105.0,109.0,102.0,13.4,1505.3,327.1,-0.7,1.8,2470.353,13.32,0.025,323.1
2020-06-08T05:10:03,42.805,6.029,-0.03,0.0,-0.042,107.0,108.0,102.0,13.4,1505.3,325.4,-0.7,1.8,2470.351,13.32,0.03,270.0
2020-06-08T05:13:03,42.805,6.029,0.001,0.011,-0.001,106.0,108.0,102.0,13.3,1505.3,323.3,-0.7,1.8,2470.34,13.33,0.011,5.2
2020-06-08T05:16:03,42.805,6.029,0.009,0.034,0.012,105.0,106.0,103.0,13.4,1505.3,326.1,-0.7,1.8,2470.324,13.33,0.035,14.8
2020-06-08T05:19:03,42.805,6.029,0.0,0.022,-0.005,104.0,106.0,102.0,13.4,1505.3,325.6,-0.7,1.8,2470.355,13.33,0.022,0.0
2020-06-08T05:22:03,42.805,6.029,-0.009,0.025,-0.01,104.0,108.0,102.0,13.3,1505.3,324.7,-0.7,1.8,2470.353,13.33,0.026,340.2
2020-06-08T05:25:03,42.805,6.029,-0.025,0.031,0.019,106.0,106.0,101.0,13.3,1505.3,328.4,-0.7,1.8,2470.377,13.33,0.039,321.1
2020-06-08T05:28:03,42.805,6.029,-0.004,0.014,-0.015,106.0,108.0,101.0,13.3,1505.3,324.5,-0.7,1.8,2470.33,13.33,0.014,344.1
2020-06-08T05:31:03,42.805,6.029,0.0,0.008,0.001,105.0,108.0,104.0,13.4,1505.3,325.1,-0.7,1.8,2470.325,13.33,0.008,0.0
2020-06-08T05:34:03,42.805,6.029,-0.033,0.02,-0.014,106.0,107.0,103.0,13.4,1505.3,323.3,-0.7,1.9,2470.364,13.33,0.038,301.2
2020-06-08T05:37:03,42.805,6.029,0.008,0.005,-0.009,105.0,106.0,102.0,13.4,1505.3,324.6,-0.7,1.8,2470.364,13.33,0.009,58.0
2020-06-08T05:40:03,42.805,6.029,-0.02,0.021,-0.009,105.0,108.0,102.0,13.4,1505.3,325.6,-0.7,1.9,2470.356,13.33,0.028,316.4
2020-06-08T05:43:03,42.805,6.029,-0.003,0.031,0.0,106.0,109.0,102.0,13.3,1505.3,326.0,-0.7,1.8,2470.365,13.33,0.031,354.5
2020-06-08T05:46:03,42.805,6.029,-0.026,0.022,-0.028,106.0,107.0,103.0,13.3,1505.3,325.8,-0.7,1.8,2470.325,13.33,0.034,310.2
2020-06-08T05:49:03,42.805,6.029,-0.042,0.034,-0.04,104.0,108.0,102.0,13.3,1505.3,325.0,-0.7,1.8,2470.361,13.33,0.054,309.0
2020-06-08T05:52:03,42.805,6.029,-0.029,0.01,-0.02,104.0,107.0,101.0,13.4,1505.3,326.7,-0.7,1.8,2470.338,13.33,0.03,289.0
2020-06-08T05:55:03,42.805,6.029,-0.029,0.017,-0.021,105.0,107.0,102.0,13.4,1505.3,325.3,-0.7,1.8,2470.366,13.33,0.033,300.4
2020-06-08T05:58:03,42.805,6.029,-0.01,0.018,-0.043,105.0,107.0,102.0,13.4,1505.3,326.7,-0.7,1.9,2470.339,13.33,0.02,330.9
2020-06-08T06:04:03,42.805,6.029,-0.021,0.026,-0.022,106.0,107.0,101.0,13.3,1505.3,328.0,-0.8,1.8,2470.393,13.31,0.033,321.1
2020-06-08T06:07:03,42.805,6.029,-0.039,0.007,-0.02,105.0,109.0,102.0,13.4,1505.3,323.0,-0.7,1.8,2470.373,13.32,0.039,280.2
2020-06-08T06:10:03,42.805,6.029,-0.014,0.017,-0.034,105.0,107.0,102.0,13.4,1505.3,324.9,-0.7,1.8,2470.421,13.32,0.022,320.5
2020-06-08T06:13:03,42.805,6.029,-0.057,0.033,-0.048,105.0,107.0,102.0,13.3,1505.3,324.4,-0.7,1.8,2470.425,13.33,0.065,300.1
2020-06-08T06:16:03,42.805,6.029,-0.025,0.016,-0.019,104.0,108.0,102.0,13.3,1505.3,322.5,-0.7,1.8,2470.401,13.33,0.029,302.6
2020-06-08T06:22:03,42.805,6.029,-0.015,0.032,-0.047,105.0,107.0,102.0,13.3,1505.3,326.6,-0.7,1.8,2470.461,13.31,0.035,334.9
2020-06-08T06:25:03,42.805,6.029,-0.047,0.018,-0.043,105.0,107.0,101.0,13.4,1505.3,327.6,-0.7,1.8,2470.458,13.32,0.05,291.0
2020-06-08T06:28:03,42.805,6.029,-0.014,0.024,-0.008,104.0,107.0,102.0,13.3,1505.3,323.7,-0.7,1.8,2470.412,13.32,0.027,329.7
2020-06-08T06:31:03,42.805,6.029,-0.021,0.018,-0.009,106.0,108.0,102.0,13.3,1505.3,324.3,-0.7,1.8,2470.4,13.33,0.027,310.6
2020-06-08T06:34:03,42.805,6.029,-0.041,0.037,-0.034,104.0,107.0,102.0,13.4,1505.3,323.6,-0.7,1.8,2470.407,13.33,0.055,312.1
2020-06-08T06:37:03,42.805,6.029,-0.03,0.022,-0.038,105.0,107.0,102.0,13.4,1505.3,324.2,-0.7,1.8,2470.401,13.33,0.037,306.3
2020-06-08T06:40:03,42.805,6.029,-0.048,0.022,-0.036,104.0,109.0,102.0,13.4,1505.3,325.3,-0.7,1.9,2470.397,13.33,0.052,294.6
2020-06-08T06:43:03,42.805,6.029,-0.012,0.038,-0.004,105.0,108.0,102.0,13.4,1505.3,328.2,-0.7,1.8,2470.403,13.33,0.039,342.5
2020-06-08T06:46:03,42.805,6.029,-0.048,0.021,-0.023,104.0,108.0,103.0,13.4,1505.3,326.8,-0.7,1.8,2470.385,13.33,0.052,293.6
2020-06-08T06:49:03,42.805,6.029,-0.002,0.026,0.006,106.0,110.0,101.0,13.4,1505.3,322.8,-0.8,1.8,2470.446,13.33,0.026,355.6
2020-06-08T06:52:03,42.805,6.029,-0.029,0.023,0.0,105.0,109.0,103.0,13.4,1505.3,328.3,-0.7,1.8,2470.364,13.33,0.037,308.4
2020-06-08T06:55:03,42.805,6.029,-0.011,0.033,-0.025,106.0,108.0,102.0,13.3,1505.3,325.1,-0.7,1.8,2470.367,13.33,0.034,341.6
2020-06-08T06:58:03,42.805,6.029,-0.017,0.008,-0.008,106.0,109.0,102.0,13.4,1505.3,326.3,-0.7,1.9,2470.39,13.33,0.018,295.2
2020-06-08T07:04:03,42.805,6.029,-0.023,0.034,-0.003,106.0,108.0,101.0,13.3,1505.3,326.1,-0.7,1.8,2470.453,13.31,0.041,325.9
2020-06-08T07:07:03,42.805,6.029,-0.019,0.013,-0.019,107.0,107.0,101.0,13.3,1505.3,326.2,-0.7,1.8,2470.449,13.32,0.023,304.4
2020-06-08T07:10:03,42.805,6.029,-0.04,0.03,-0.028,106.0,109.0,101.0,13.4,1505.3,327.4,-0.7,1.8,2470.448,13.32,0.05,306.9
2020-06-08T07:13:03,42.805,6.029,0.0,0.022,0.0,105.0,109.0,102.0,13.3,1505.3,325.2,-0.7,1.8,2470.4,13.33,0.022,0.0
2020-06-08T07:16:03,42.805,6.029,-0.013,0.022,-0.024,104.0,108.0,102.0,13.4,1505.3,324.9,-0.7,1.8,2470.472,13.33,0.025,329.4
2020-06-08T07:19:03,42.805,6.029,-0.024,0.017,-0.025,105.0,108.0,101.0,13.4,1505.3,326.8,-0.7,1.9,2470.418,13.33,0.029,305.3
2020-06-08T07:22:03,42.805,6.029,-0.015,0.019,-0.001,104.0,108.0,102.0,13.3,1505.3,326.3,-0.7,1.8,2470.427,13.33,0.024,321.7
2020-06-08T07:25:03,42.805,6.029,-0.031,0.011,-0.039,104.0,107.0,101.0,13.4,1505.3,325.2,-0.7,1.8,2470.451,13.33,0.032,289.5
2020-06-08T07:28:03,42.805,6.029,-0.011,0.034,-0.006,104.0,107.0,103.0,13.3,1505.3,325.4,-0.7,1.9,2470.456,13.33,0.035,342.1
2020-06-08T07:31:03,42.805,6.029,-0.026,0.023,-0.007,106.0,108.0,102.0,13.3,1505.3,324.7,-0.7,1.8,2470.445,13.33,0.034,311.5
2020-06-08T07:34:03,42.805,6.029,-0.033,0.042,-0.001,106.0,109.0,104.0,13.4,1505.3,324.1,-0.7,1.8,2470.406,13.33,0.053,321.8
2020-06-08T07:37:03,42.805,6.029,-0.011,0.021,-0.025,106.0,109.0,103.0,13.3,1505.3,324.9,-0.7,1.9,2470.408,13.33,0.023,332.4
2020-06-08T07:40:03,42.805,6.029,-0.01,0.02,-0.025,108.0,108.0,102.0,13.3,1505.3,326.3,-0.7,1.9,2470.418,13.33,0.022,333.4
2020-06-08T07:43:03,42.805,6.029,0.009,0.03,-0.024,105.0,108.0,103.0,13.4,1505.3,324.5,-0.7,1.8,2470.389,13.33,0.031,16.7
2020-06-08T07:46:03,42.805,6.029,0.013,0.02,-0.014,104.0,108.0,103.0,13.4,1505.3,326.5,-0.7,1.8,2470.37,13.33,0.023,33.0
2020-06-08T07:49:03,42.805,6.029,-0.025,0.039,-0.001,106.0,107.0,102.0,13.3,1505.3,323.5,-0.7,1.8,2470.402,13.33,0.046,327.3
2020-06-08T07:52:03,42.805,6.029,0.0,0.0,0.001,105.0,109.0,103.0,13.4,1505.4,326.5,-0.7,1.9,2470.445,13.34,0.0,0.0
2020-06-08T07:55:03,42.805,6.029,-0.017,0.028,-0.026,107.0,108.0,102.0,13.4,1505.3,327.3,-0.7,1.8,2470.422,13.33,0.032,328.7
2020-06-08T07:58:03,42.805,6.029,-0.006,0.02,-0.034,104.0,108.0,102.0,13.4,1505.3,324.7,-0.8,1.8,2470.439,13.33,0.02,343.3
2020-06-08T08:04:03,42.805,6.029,-0.02,0.025,-0.002,104.0,109.0,102.0,13.4,1505.3,326.1,-0.7,1.8,2470.406,13.31,0.032,321.3
2020-06-08T08:07:03,42.805,6.029,0.002,0.021,-0.001,105.0,109.0,102.0,13.4,1505.3,327.0,-0.7,1.8,2470.45,13.32,0.021,5.4
2020-06-08T08:10:03,42.805,6.029,-0.023,0.022,-0.027,104.0,111.0,103.0,13.4,1505.3,326.7,-0.7,1.8,2470.406,13.33,0.031,313.7
2020-06-08T08:13:03,42.805,6.029,0.008,0.025,-0.016,105.0,108.0,103.0,13.4,1505.3,323.7,-0.7,1.8,2470.445,13.33,0.026,17.7
2020-06-08T08:16:03,42.805,6.029,-0.001,0.017,-0.029,105.0,107.0,102.0,13.3,1505.3,324.6,-0.7,1.9,2470.421,13.33,0.017,356.6
2020-06-08T08:19:03,42.805,6.029,-0.014,0.041,-0.013,104.0,107.0,103.0,13.4,1505.3,324.3,-0.7,1.8,2470.476,13.33,0.043,341.1
2020-06-08T08:22:03,42.805,6.029,-0.004,0.008,0.008,105.0,108.0,102.0,13.3,1505.3,323.6,-0.7,1.8,2470.445,13.33,0.008,333.4
2020-06-08T08:25:03,42.805,6.029,0.001,0.011,-0.001,107.0,107.0,103.0,13.4,1505.3,325.9,-0.7,1.8,2470.416,13.33,0.011,5.2
2020-06-08T08:28:03,42.805,6.029,0.008,0.015,0.012,105.0,109.0,102.0,13.4,1505.3,327.6,-0.7,1.8,2470.452,13.33,0.017,28.1
2020-06-08T08:31:03,42.805,6.029,-0.005,0.02,0.001,106.0,107.0,102.0,13.4,1505.3,328.3,-0.7,1.9,2470.421,13.33,0.02,346.0
2020-06-08T08:34:03,42.805,6.029,0.001,0.017,-0.005,105.0,109.0,103.0,13.3,1505.3,324.9,-0.7,1.8,2470.429,13.33,0.017,3.4
2020-06-08T08:37:03,42.805,6.029,-0.005,0.036,0.007,103.0,107.0,103.0,13.3,1505.3,323.5,-0.7,1.8,2470.391,13.33,0.036,352.1
2020-06-08T08:40:03,42.805,6.029,0.027,0.002,0.032,103.0,108.0,102.0,13.4,1505.3,324.3,-0.7,1.8,2470.467,13.33,0.027,85.8
2020-06-08T08:43:03,42.805,6.029,0.015,0.035,0.009,104.0,110.0,102.0,13.4,1505.3,327.2,-0.7,1.8,2470.379,13.33,0.038,23.2
2020-06-08T08:46:03,42.805,6.029,0.02,0.032,0.02,104.0,109.0,102.0,13.4,1505.3,327.1,-0.7,1.8,2470.399,13.33,0.037,32.0
2020-06-08T08:49:03,42.805,6.029,-0.011,0.026,0.002,105.0,107.0,102.0,13.3,1505.3,325.4,-0.7,1.8,2470.408,13.33,0.028,337.1
2020-06-08T08:52:03,42.805,6.029,-0.015,0.009,-0.008,105.0,106.0,101.0,13.4,1505.3,326.8,-0.7,1.8,2470.415,13.33,0.017,301.0
2020-06-08T08:55:03,42.805,6.029,-0.008,0.03,-0.009,105.0,107.0,101.0,13.4,1505.3,324.8,-0.7,1.8,2470.442,13.33,0.031,345.1
2020-06-08T08:58:03,42.805,6.029,-0.008,0.012,-0.011,105.0,108.0,102.0,13.4,1505.4,326.7,-0.7,1.8,2470.456,13.34,0.014,326.3
2020-06-08T09:04:03,42.805,6.029,-0.023,0.008,-0.01,105.0,108.0,103.0,13.4,1505.3,322.9,-0.7,1.9,2470.461,13.32,0.024,289.2
2020-06-08T09:07:03,42.805,6.029,0.01,0.019,-0.008,104.0,107.0,103.0,13.4,1505.3,326.1,-0.7,1.8,2470.391,13.32,0.021,27.8
2020-06-08T09:10:03,42.805,6.029,-0.023,0.027,0.015,106.0,108.0,102.0,13.4,1505.3,328.1,-0.7,1.9,2470.464,13.33,0.035,319.6
2020-06-08T09:13:03,42.805,6.029,0.006,0.035,-0.006,106.0,108.0,102.0,13.4,1505.3,326.7,-0.7,1.8,2470.465,13.33,0.035,9.7
2020-06-08T09:16:03,42.805,6.029,0.008,0.019,0.003,105.0,109.0,103.0,13.3,1505.3,324.6,-0.7,1.9,2470.427,13.33,0.02,22.8
2020-06-08T09:19:03,42.805,6.029,-0.025,0.021,-0.012,105.0,110.0,102.0,13.4,1505.3,324.7,-0.7,1.9,2470.421,13.33,0.032,310.0
2020-06-08T09:22:03,42.805,6.029,-0.018,0.026,-0.028,106.0,108.0,102.0,13.4,1505.3,328.4,-0.7,1.9,2470.449,13.33,0.031,325.3
2020-06-08T09:25:03,42.805,6.029,0.0,0.017,-0.017,105.0,107.0,104.0,13.4,1505.3,325.5,-0.7,1.8,2470.414,13.33,0.017,0.0
2020-06-08T09:28:03,42.805,6.029,-0.006,0.046,-0.016,105.0,108.0,102.0,13.4,1505.3,322.7,-0.7,1.8,2470.421,13.33,0.046,352.6
2020-06-08T09:31:03,42.805,6.029,-0.005,0.011,-0.013,106.0,108.0,103.0,13.4,1505.3,325.6,-0.7,1.9,2470.372,13.33,0.012,335.6
2020-06-08T09:34:03,42.805,6.029,-0.014,0.031,-0.011,104.0,109.0,103.0,13.4,1505.3,325.9,-0.7,1.8,2470.389,13.33,0.034,335.7
2020-06-08T09:37:03,42.805,6.029,0.002,0.038,-0.006,105.0,109.0,103.0,13.4,1505.3,323.3,-0.7,1.8,2470.409,13.33,0.038,3.0
2020-06-08T09:40:03,42.805,6.029,-0.007,0.032,0.012,107.0,109.0,104.0,13.3,1505.3,326.3,-0.7,1.9,2470.387,13.33,0.032,347.7
2020-06-08T09:43:03,42.805,6.029,-0.019,0.039,-0.004,105.0,111.0,103.0,13.4,1505.4,327.0,-0.7,1.8,2470.411,13.34,0.043,334.0
2020-06-08T09:46:03,42.805,6.029,-0.029,0.013,-0.029,104.0,109.0,103.0,13.4,1505.4,327.2,-0.7,1.8,2470.403,13.34,0.031,294.1
2020-06-08T09:49:03,42.805,6.029,-0.03,0.017,-0.034,106.0,109.0,102.0,13.4,1505.4,325.0,-0.7,1.8,2470.433,13.34,0.034,299.5
2020-06-08T09:52:03,42.805,6.029,-0.02,0.02,-0.051,104.0,109.0,102.0,13.4,1505.4,328.5,-0.7,1.8,2470.436,13.34,0.028,315.0
2020-06-08T09:55:03,42.805,6.029,-0.02,0.016,0.0,106.0,109.0,102.0,13.4,1505.4,325.0,-0.7,1.9,2470.414,13.34,0.025,308.7
2020-06-08T09:58:03,42.805,6.029,-0.027,0.032,-0.037,104.0,108.0,102.0,13.3,1505.4,325.0,-0.7,1.8,2470.409,13.34,0.041,319.8
2020-06-08T10:04:03,42.805,6.029,-0.021,0.035,-0.025,105.0,108.0,102.0,13.4,1505.3,323.3,-0.8,1.8,2470.432,13.32,0.04,329.0
2020-06-08T10:07:03,42.805,6.029,-0.003,0.025,-0.027,105.0,109.0,102.0,13.4,1505.3,323.8,-0.7,1.8,2470.404,13.33,0.025,353.2
2020-06-08T10:10:03,42.805,6.029,-0.001,0.022,0.004,107.0,109.0,102.0,13.3,1505.3,324.2,-0.7,1.8,2470.406,13.33,0.022,357.4